Time,TemperatureF,DewpointF,PressureIn,WindDirection,WindDirectionDegrees,WindSpeedMPH,WindSpeedGustMPH,Humidity,HourlyPrecipIn,Conditions,Clouds,dailyrainin,SolarRadiationWatts/m^2,SoftwareType,DateUTC
2013-01-06 11:33:00,78.0,59.0,30.11,ENE,59,23.0,45.0,53,0.00,,,0.00,729.000000,,2013-01-06 21:33:00,
2013-01-06 11:42:00,78.0,59.0,30.11,ENE,59,23.0,45.0,53,0.00,,,0.00,729.000000,,2013-01-06 21:42:00,
2013-01-06 11:52:00,78.0,59.0,30.11,ENE,59,23.0,45.0,53,0.00,,,0.00,729.000000,,2013-01-06 21:52:00,
2013-01-06 12:12:00,79.0,59.0,30.08,ENE,58,27.0,50.0,51,0.00,,,0.00,868.000000,,2013-01-06 22:12:00,
2013-01-06 12:22:00,79.0,59.0,30.08,ENE,58,27.0,50.0,51,0.00,,,0.00,868.000000,,2013-01-06 22:22:00,
2013-01-06 12:33:00,79.0,59.0,30.08,ENE,58,27.0,50.0,51,0.00,,,0.00,868.000000,,2013-01-06 22:33:00,
2013-01-06 12:42:00,79.0,59.0,30.08,ENE,58,27.0,50.0,51,0.00,,,0.00,868.000000,,2013-01-06 22:42:00,
2013-01-06 12:52:00,79.0,59.0,30.08,ENE,58,27.0,50.0,51,0.00,,,0.00,868.000000,,2013-01-06 22:52:00,
2013-01-06 13:12:00,78.0,62.0,30.03,ENE,62,26.0,52.0,58,0.00,,,0.00,925.000000,,2013-01-06 23:12:00,
2013-01-06 13:22:00,78.0,62.0,30.03,ENE,62,26.0,52.0,58,0.00,,,0.00,925.000000,,2013-01-06 23:22:00,
2013-01-06 13:32:00,78.0,62.0,30.03,ENE,62,26.0,52.0,58,0.00,,,0.00,925.000000,,2013-01-06 23:32:00,
2013-01-06 13:42:00,78.0,62.0,30.03,ENE,62,26.0,52.0,58,0.00,,,0.00,925.000000,,2013-01-06 23:42:00,
2013-01-06 13:52:00,78.0,62.0,30.03,ENE,62,26.0,52.0,58,0.00,,,0.00,925.000000,,2013-01-06 23:52:00,
2013-01-06 14:22:00,79.0,63.0,30.01,ENE,63,25.0,49.0,59,0.00,,,0.00,893.000000,,2013-01-07 00:22:00,
2013-01-06 14:32:00,79.0,63.0,30.01,ENE,63,25.0,49.0,59,0.00,,,0.00,893.000000,,2013-01-07 00:32:00,
2013-01-06 14:42:00,79.0,63.0,30.01,ENE,63,25.0,49.0,59,0.00,,,0.00,893.000000,,2013-01-07 00:42:00,
2013-01-06 14:52:00,79.0,63.0,30.01,ENE,63,25.0,49.0,59,0.00,,,0.00,893.000000,,2013-01-07 00:52:00,
2013-01-06 15:22:00,78.0,62.0,30.01,ENE,58,23.0,50.0,58,0.00,,,0.00,784.000000,,2013-01-07 01:22:00,
2013-01-06 15:32:00,78.0,62.0,30.01,ENE,58,23.0,50.0,58,0.00,,,0.00,784.000000,,2013-01-07 01:32:00,
2013-01-06 15:42:00,78.0,62.0,30.01,ENE,58,23.0,50.0,58,0.00,,,0.00,784.000000,,2013-01-07 01:42:00,
2013-01-06 15:52:00,78.0,62.0,30.01,ENE,58,23.0,50.0,58,0.00,,,0.00,784.000000,,2013-01-07 01:52:00,
2013-01-06 16:22:00,79.0,62.0,30.02,NE,49,21.0,42.0,57,0.00,,,0.00,607.000000,,2013-01-07 02:22:00,
2013-01-06 16:32:00,79.0,62.0,30.02,NE,49,21.0,42.0,57,0.00,,,0.00,607.000000,,2013-01-07 02:32:00,
2013-01-06 16:42:00,79.0,62.0,30.02,NE,49,21.0,42.0,57,0.00,,,0.00,607.000000,,2013-01-07 02:42:00,
2013-01-06 16:52:00,79.0,62.0,30.02,NE,49,21.0,42.0,57,0.00,,,0.00,607.000000,,2013-01-07 02:52:00,
2013-01-06 17:22:00,76.0,61.0,29.99,ENE,58,27.0,45.0,60,0.00,,,0.00,372.000000,,2013-01-07 03:22:00,
2013-01-06 17:32:00,76.0,61.0,29.99,ENE,58,27.0,45.0,60,0.00,,,0.00,372.000000,,2013-01-07 03:32:00,
2013-01-06 17:42:00,76.0,61.0,29.99,ENE,58,27.0,45.0,60,0.00,,,0.00,372.000000,,2013-01-07 03:42:00,
2013-01-06 17:52:00,76.0,61.0,29.99,ENE,58,27.0,45.0,60,0.00,,,0.00,372.000000,,2013-01-07 03:52:00,
2013-01-06 18:12:00,76.0,62.0,29.99,NE,54,23.0,49.0,62,0.00,,,0.00,120.000000,,2013-01-07 04:12:00,
2013-01-06 18:22:00,76.0,62.0,29.99,NE,54,23.0,49.0,62,0.00,,,0.00,120.000000,,2013-01-07 04:22:00,
2013-01-06 18:32:00,76.0,62.0,29.99,NE,54,23.0,49.0,62,0.00,,,0.00,120.000000,,2013-01-07 04:32:00,
2013-01-06 18:42:00,76.0,62.0,29.99,NE,54,23.0,49.0,62,0.00,,,0.00,120.000000,,2013-01-07 04:42:00,
2013-01-06 18:52:00,76.0,62.0,29.99,NE,54,23.0,49.0,62,0.00,,,0.00,120.000000,,2013-01-07 04:52:00,
2013-01-06 19:12:00,75.0,64.0,29.99,ENE,61,29.0,51.0,68,0.00,,,-99.99,2.000000,,2013-01-07 05:12:00,
2013-01-06 19:22:00,75.0,64.0,29.99,ENE,61,29.0,51.0,68,0.00,,,-99.99,2.000000,,2013-01-07 05:22:00,
2013-01-06 19:32:00,75.0,64.0,29.99,ENE,61,29.0,51.0,68,0.00,,,-99.99,2.000000,,2013-01-07 05:32:00,
2013-01-06 19:42:00,75.0,64.0,29.99,ENE,61,29.0,51.0,68,0.00,,,-99.99,2.000000,,2013-01-07 05:42:00,
2013-01-06 19:52:00,75.0,64.0,29.99,ENE,61,29.0,51.0,68,0.00,,,-99.99,2.000000,,2013-01-07 05:52:00,
2013-01-06 20:12:00,73.0,61.0,30.01,ENE,57,30.0,51.0,67,0.00,,,0.00,0.000000,,2013-01-07 06:12:00,
2013-01-06 20:22:00,73.0,61.0,30.01,ENE,57,30.0,51.0,67,0.00,,,0.00,0.000000,,2013-01-07 06:22:00,
2013-01-06 20:32:00,73.0,61.0,30.01,ENE,57,30.0,51.0,67,0.00,,,0.00,0.000000,,2013-01-07 06:32:00,
2013-01-06 20:42:00,73.0,61.0,30.01,ENE,57,30.0,51.0,67,0.00,,,0.00,0.000000,,2013-01-07 06:42:00,
2013-01-06 20:52:00,73.0,61.0,30.01,ENE,57,30.0,51.0,67,0.00,,,0.00,0.000000,,2013-01-07 06:52:00,
2013-01-06 21:12:00,73.0,62.0,30.04,NE,42,24.0,47.0,69,0.00,,,0.00,0.000000,,2013-01-07 07:12:00,
2013-01-06 21:22:00,73.0,62.0,30.04,NE,42,24.0,47.0,69,0.00,,,0.00,0.000000,,2013-01-07 07:22:00,
2013-01-06 21:32:00,73.0,62.0,30.04,NE,42,24.0,47.0,69,0.00,,,0.00,0.000000,,2013-01-07 07:32:00,
2013-01-06 21:42:00,73.0,62.0,30.04,NE,42,24.0,47.0,69,0.00,,,0.00,0.000000,,2013-01-07 07:42:00,
2013-01-06 21:52:00,73.0,62.0,30.04,NE,42,24.0,47.0,69,0.00,,,0.00,0.000000,,2013-01-07 07:52:00,
2013-01-06 22:12:00,73.0,62.0,30.06,NE,49,25.0,48.0,69,0.00,,,0.00,0.000000,,2013-01-07 08:12:00,
2013-01-06 22:22:00,73.0,62.0,30.06,NE,49,25.0,48.0,69,0.00,,,0.00,0.000000,,2013-01-07 08:22:00,
2013-01-06 22:32:00,73.0,62.0,30.06,NE,49,25.0,48.0,69,0.00,,,0.00,0.000000,,2013-01-07 08:32:00,
2013-01-06 22:42:00,73.0,62.0,30.06,NE,49,25.0,48.0,69,0.00,,,0.00,0.000000,,2013-01-07 08:42:00,
2013-01-06 22:52:00,73.0,62.0,30.06,NE,49,25.0,48.0,69,0.00,,,0.00,0.000000,,2013-01-07 08:52:00,
2013-01-06 23:22:00,74.0,63.0,30.08,NE,46,21.0,42.0,68,0.00,,,0.00,0.000000,,2013-01-07 09:22:00,
2013-01-06 23:32:00,74.0,63.0,30.08,NE,46,21.0,42.0,68,0.00,,,0.00,0.000000,,2013-01-07 09:32:00,
2013-01-06 23:42:00,74.0,63.0,30.08,NE,46,21.0,42.0,68,0.00,,,0.00,0.000000,,2013-01-07 09:42:00,
2013-01-06 23:52:00,74.0,63.0,30.08,NE,46,21.0,42.0,68,0.00,,,0.00,0.000000,,2013-01-07 09:52:00,